Regional Weather Roundup
Issued by NWS

Home | Current Version | Previous Version | Text Only | Print | Product List | Glossary On
Versions: 1 2 3 4 5 6 7 8 9 10 11 12 13 14 15 16
000
ASPQ40 PGUM 011112
RWRPQ
WEATHER ROUNDUP FOR THE MARIANAS AND MICRONESIA
NATIONAL WEATHER SERVICE TIYAN GU
900 PM CHST WED OCT 01 2014

GUZ001>004-011200-
MARIANA ISLANDS-

CITY           SKY/WX    TMP DP  RH WIND       PRES   REMARKS
GUAM AIRPORT   PTCLDY    81  75  83 S7        29.65S
ANDERSEN AFB   PTCLDY    79  75  89 SW17      29.65R
ROTA AIRPORT   NOT AVBL
TINIAN AP      NOT AVBL
SAIPAN AP      PTCLDY    82  79  89 S17G23    29.63R HX  93

$$

PMZ161-011200-
REPUBLIC OF PALAU-

CITY           SKY/WX    TMP DP  RH WIND       PRES   REMARKS
KOROR AP       SHOWER    75  73  94 W12G25    29.79R
KOROR WSO      LGT RAIN  77  73  88 W17       29.79R

$$

PMZ171>174-011200-
FEDERATED STATES OF MICRONESIA-

CITY           SKY/WX    TMP DP  RH WIND       PRES   REMARKS
YAP AIRPORT    CLOUDY    82  77  83 W8        29.71R HX  91
CHUUK AP       MOCLDY    81  79  94 VRB5      29.81R
POHNPEI AP     NOT AVBL
POHNPEI WSO    CLOUDY    81  77  89 SE3       29.83F
KOSRAE AP      NOT AVBL

$$

PMZ181-011200-
REPUBLIC OF THE MARSHALL ISLANDS-

CITY           SKY/WX    TMP DP  RH WIND       PRES   REMARKS
KWAJALEIN AP   RAIN      81  75  83 SE12      29.75F
MAJURO AP      NOT AVBL
MAJURO WSO     MOCLDY    82  77  83 CALM      29.77S HX  91

$$



USA.gov is the U.S. government's official web portal to all federal, state and local government web resources and services.